| time (UTC) | temp F | wind direction | speed knots | gust knots | rain 1hr in | rain 24hr in | rain mn in | humidity % | barometer mb |
| 20260505100053 | 64 | 344 | 7.0 | 19.1 | 0.00 | 0.00 | 0.00 | 74 | 1006.7 |
| 20260505094553 | 64 | 270 | 5.2 | 12.2 | 0.00 | 0.00 | 0.00 | 73 | 1006.6 |
| 20260505093057 | 65 | 250 | 4.3 | 8.7 | 0.00 | 0.00 | 0.00 | 72 | 1005.5 |
| 20260505091556 | 65 | 285 | 2.6 | 5.2 | 0.00 | 0.00 | 0.00 | 71 | 1004.6 |
| 20260505090055 | 65 | 200 | 2.6 | 11.3 | 0.00 | 0.00 | 0.00 | 71 | 1004.2 |
| 20260505084553 | 65 | 138 | 4.3 | 7.8 | 0.00 | 0.00 | 0.00 | 71 | 1004.2 |
| 20260505083054 | 64 | 129 | 4.3 | 10.4 | 0.00 | 0.00 | 0.00 | 72 | 1004.7 |
| 20260505081554 | 64 | 154 | 0.9 | 6.1 | 0.00 | 0.00 | 0.00 | 72 | 1004.8 |
| 20260505080054 | 64 | 182 | 2.6 | 6.1 | 0.00 | 0.00 | 0.00 | 72 | 1004.9 |
| 20260505074600 | 65 | 146 | 2.6 | 6.1 | 0.00 | 0.00 | 0.00 | 71 | 1005.0 |
| 20260505073103 | 65 | 151 | 1.7 | 4.3 | 0.00 | 0.00 | 0.00 | 70 | 1005.3 |
| 20260505071553 | 65 | 142 | 0.9 | 2.6 | 0.00 | 0.00 | 0.00 | 71 | 1005.8 |
| 20260505070056 | 64 | 162 | 0.0 | 3.5 | 0.00 | 0.00 | 0.00 | 71 | 1006.2 |
| 20260505064554 | 64 | 184 | 0.9 | 4.3 | 0.00 | 0.00 | 0.00 | 71 | 1006.2 |
| 20260505063053 | 64 | 195 | 1.7 | 6.1 | 0.00 | 0.00 | 0.00 | 71 | 1005.7 |
| 20260505061557 | 64 | 200 | 4.3 | 9.6 | 0.00 | 0.00 | 0.00 | 71 | 1005.1 |
| 20260505060054 | 64 | 178 | 4.3 | 7.8 | 0.00 | 0.00 | 0.00 | 71 | 1004.6 |
| 20260505054625 | 65 | 171 | 4.3 | 8.7 | 0.00 | 0.00 | 0.00 | 70 | 1005.2 |
| 20260505053108 | 65 | 146 | 1.7 | 6.1 | 0.00 | 0.00 | 0.00 | 69 | 1005.0 |
| 20260505051553 | 66 | 153 | 2.6 | 8.7 | 0.00 | 0.00 | 0.00 | 68 | 1005.4 |
| 20260505050105 | 66 | 155 | 2.6 | 6.1 | 0.00 | 0.00 | 0.00 | 67 | 1005.6 |
| 20260505041556 | 68 | 139 | 4.3 | 10.4 | 0.00 | 0.00 | 0.00 | 63 | 1006.0 |
| 20260505040056 | 69 | 190 | 3.5 | 10.4 | 0.00 | 0.00 | 0.00 | 62 | 1006.0 |
| 20260505034558 | 69 | 195 | 6.1 | 13.9 | 0.00 | 0.00 | 0.00 | 61 | 1006.1 |
| 20260505033057 | 70 | 190 | 5.2 | 12.2 | 0.00 | 0.00 | 0.00 | 60 | 1006.1 |
| 20260505031607 | 70 | 192 | 3.5 | 8.7 | 0.00 | 0.00 | 0.00 | 59 | 1006.1 |
| 20260505030056 | 71 | 141 | 1.7 | 9.6 | 0.00 | 0.00 | 0.00 | 58 | 1006.2 |
| 20260505024559 | 71 | 198 | 4.3 | 10.4 | 0.00 | 0.00 | 0.00 | 56 | 1006.0 |
| 20260505023116 | 71 | 163 | 5.2 | 11.3 | 0.00 | 0.00 | 0.00 | 56 | 1005.7 |
| 20260505021557 | 72 | 225 | 5.2 | 9.6 | 0.00 | 0.00 | 0.00 | 55 | 1005.4 |
| 20260505020054 | 72 | 152 | 6.1 | 13.0 | 0.00 | 0.00 | 0.00 | 53 | 1005.1 |
| 20260505014601 | 73 | 177 | 5.2 | 7.8 | 0.00 | 0.00 | 0.00 | 52 | 1004.8 |
| 20260505013108 | 73 | 182 | 6.1 | 9.6 | 0.00 | 0.00 | 0.00 | 51 | 1004.6 |
| 20260505011554 | 74 | 197 | 6.1 | 13.9 | 0.00 | 0.00 | 0.00 | 50 | 1004.5 |
| 20260505010100 | 75 | 193 | 7.0 | 12.2 | 0.00 | 0.00 | 0.00 | 50 | 1004.3 |
| 20260505004556 | 75 | 189 | 7.0 | 14.8 | 0.00 | 0.00 | 0.00 | 50 | 1004.0 |
| 20260505003051 | 76 | 175 | 5.2 | 10.4 | 0.00 | 0.00 | 0.00 | 50 | 1004.2 |
| 20260505001556 | 77 | 184 | 7.8 | 13.0 | 0.00 | 0.00 | 0.00 | 48 | 1004.2 |
| 20260505000113 | 77 | 210 | 6.1 | 12.2 | 0.00 | 0.00 | 0.00 | 48 | 1004.2 |
| 20260504234552 | 78 | 210 | 7.8 | 14.8 | 0.00 | 0.00 | 0.00 | 47 | 1004.2 |
| 20260504233057 | 79 | 200 | 7.0 | 12.2 | 0.00 | 0.00 | 0.00 | 46 | 1004.2 |
| 20260504231554 | 79 | 203 | 8.7 | 15.6 | 0.00 | 0.00 | 0.00 | 45 | 1004.3 |
| 20260504230106 | 79 | 210 | 8.7 | 20.0 | 0.00 | 0.00 | 0.00 | 44 | 1004.5 |
| 20260504224552 | 79 | 201 | 9.6 | 18.2 | 0.00 | 0.00 | 0.00 | 44 | 1004.6 |
| 20260504223053 | 80 | 200 | 10.4 | 16.5 | 0.00 | 0.00 | 0.00 | 44 | 1004.5 |
| 20260504221601 | 80 | 209 | 10.4 | 20.0 | 0.00 | 0.00 | 0.00 | 44 | 1004.6 |
| 20260504220058 | 80 | 223 | 11.3 | 20.0 | 0.00 | 0.00 | 0.00 | 43 | 1004.6 |
| 20260504214548 | 80 | 217 | 13.0 | 21.7 | 0.00 | 0.00 | 0.00 | 43 | 1004.8 |
| 20260504213053 | 80 | 215 | 12.2 | 24.3 | 0.00 | 0.00 | 0.00 | 42 | 1004.8 |
| 20260504211553 | 81 | 212 | 9.6 | 26.9 | 0.00 | 0.00 | 0.00 | 41 | 1004.9 |
| 20260504210054 | 81 | 220 | 9.6 | 19.1 | 0.00 | 0.00 | 0.00 | 43 | 1005.0 |
| 20260504204555 | 80 | 239 | 10.4 | 21.7 | 0.00 | 0.00 | 0.00 | 42 | 1005.0 |
| 20260504203109 | 81 | 211 | 11.3 | 23.5 | 0.00 | 0.00 | 0.00 | 41 | 1005.3 |
| 20260504201559 | 81 | 176 | 11.3 | 19.1 | 0.00 | 0.00 | 0.00 | 43 | 1005.3 |
| 20260504200053 | 80 | 209 | 13.0 | 23.5 | 0.00 | 0.00 | 0.00 | 44 | 1005.5 |
| 20260504194552 | 81 | 217 | 11.3 | 20.9 | 0.00 | 0.00 | 0.00 | 44 | 1005.6 |
| 20260504193049 | 81 | 209 | 7.8 | 19.1 | 0.00 | 0.00 | 0.00 | 43 | 1005.9 |
| 20260504191605 | 80 | 206 | 8.7 | 19.1 | 0.00 | 0.00 | 0.00 | 44 | 1006.1 |
| 20260504190107 | 81 | 216 | 9.6 | 20.0 | 0.00 | 0.00 | 0.00 | 42 | 1006.2 |
| 20260504184550 | 80 | 211 | 10.4 | 16.5 | 0.00 | 0.00 | 0.00 | 44 | 1006.3 |
| 20260504183050 | 77 | 192 | 10.4 | 21.7 | 0.00 | 0.00 | 0.00 | 46 | 1006.3 |
| 20260504181558 | 78 | 209 | 10.4 | 19.1 | 0.00 | 0.00 | 0.00 | 44 | 1006.5 |
| 20260504180057 | 78 | 194 | 11.3 | 25.2 | 0.00 | 0.00 | 0.00 | 44 | 1006.4 |
| 20260504174557 | 78 | 217 | 13.0 | 20.9 | 0.00 | 0.00 | 0.00 | 44 | 1006.3 |
| 20260504173055 | 78 | 211 | 12.2 | 26.9 | 0.00 | 0.00 | 0.00 | 43 | 1006.2 |
| 20260504171551 | 78 | 211 | 12.2 | 21.7 | 0.00 | 0.00 | 0.00 | 43 | 1006.3 |